ATLAS 5 CENTAUR DEB, 57591

Orbit data source: Space-Track

ATLAS 5 CENTAUR DEB, 57591 is space debris in HEO originally from a launch on Wed, 17 Oct 2018 UTC launched from the Air Force Eastern Test Range (AFETR). Debris objects in space refer to the collection of defunct objects orbiting the Earth. Examples of debris include non-operational satellites, rocket bodies, and fragments generated from explosions, collisions, or faulty payload assembly.

Loading next visibility...
Identifier
57591, 2018-079HS
Orbit
HEO
Country
Flag of USUS
Related business
Flag of USUnited Launch Alliance/Lockheed Martin (US)
Manufacturer
ULA Decatur
Mission
Spacecraft
Bus & Motor
Unknown
Mass
Unknown
Launch date (UTC)
2018-10-17 (7 years ago)
Launch vehicle
Unknown
Launch site
Air Force Eastern Test Range (AFETR)
Object type
Payload
Rocket body
Debris
Shape & HBR
Unknown shape, 1.1 m
Radar Cross Section
RCS unknown

Expand to show TLE details & history
Last TLE update: 6 months ago

TLE from 6 months ago
0 ATLAS 5 CENTAUR DEB
1 57591U 18079HS  25168.97315712 -.00000073  00000-0  00000-0 0  9990
2 57591  12.0605  93.5765 4314886 205.2750 125.1513  1.80112258 18941
Epoch: 2025-06-17T23:21Z
TLE epoch observation values (Epoch: 2025-06-17T23:21:20.775Z)
Latitude
0.00001°
Longitude
-163.27265°
Altitude
31,719.343 km
Speed
2.638 km/s
True Right ascension
06h 14m 06s
True Declination
0° 00' 00"
Sunlit
Object was in daylight at epoch
Visualization orbit readout
Latitude
Unknown
Longitude
Unknown
Altitude
Unknown
Speed
Unknown
Apparent Right ascension
Unknown
Apparent Declination
Unknown
Sunlit
N/A
Visualization observer readout
Local Sidereal Time
12:32:16
Azimuth
Unknown
Elevation
Unknown
Doppler factor
Unknown
Orbital elements
Apogee altitude
34,471.769 km
Perigee altitude
9,845.28 km
Semi-major axis
28,536.661 km
Eccentricity
0.43149
Inclination
12.0605°
RAAN
93.5765°
Arg. of periapsis
205.275°
True anomaly
154.69255°
Mean anomaly
125.1513°
Eccentric anomaly
140.78249°
Mean motion
0.45023 °/min
Orbital period
799.58 mins
BSTAR
0
Loading maneuver chart data...
Computing Atmospheric mass density...

Documentation

Showing up to 5 results
|